Weather in Sodder

Russia / Republic of Karelia     61°48′20″N   32°50′53″E
temp.,
°C
wind,
m/s
gust,
m/s
humid.,
%
clouds,
%
prec.,
mm/h
press.,
hPa
HPBL,
m
12 may, wed
wed1200:00+12ssw312765 0.0 1023227
03:00+10s29855 0.0 1024161
06:00+12s288572 0.0 1024208
09:00+17ssw36635 0.0 1024451
12:00+21ssw46430 0.0 1023912
15:00+22ssw46350 0.0 10231238
18:00+21ssw36470 0.0 1022971
21:00+16s22710 0.0 102111
13 may, thu
thu1300:00+14sse11760 0.0 102111
03:00+13ese22780 0.0 102114
06:00+14ese24780 0.0 1020115
09:00+20sse36560 0.0 1019668
12:00+23sse474259 0.0 10182254
15:00+19ssw246381 0.0 1017277
18:00+21s135515 0.0 1015478
21:00+16ese226720 0.0 101514
14 may, fri
fri1400:00+14e11785 0.0 101311
03:00+12ene228326 0.0 101229
06:00+13e2786100 0.3 1010243
09:00+14ese1595100 2.1 1010327
12:00+15s3581100 0.6 1011691
15:00+16ssw5773100 0.6 1011871
18:00+15wsw487085 0.0 1012823
21:00+12sw228862 0.0 101251
15 may, sat
sat1500:00+10ssw11955 0.0 101310
03:00+9se119366 0.0 101210
06:00+11ene128564 0.0 101286
09:00+17ese246056 0.0 1011592
12:00+20ese3444100 0.0 10101791
15:00+19e3450100 0.0 10091255
18:00+16ene3861100 0.1 1007359
21:00+14e31077100 0.7 1006345
16 may, sun
sun1600:00+12ene3793100 1.3 1004255
03:00+12ene239875 2.1 100370
06:00+12e139699 0.3 1003146
09:00+14sw2392100 0.6 1003469
12:00+13sw3792100 0.1 1005489
15:00+15sw4881100 0.2 1006765
18:00+15sw4875100 0.0 1008704
21:00+12sw4108797 0.1 1010474